When you browse on this site, cookies collect data to enhance your experience and personalize the content and advertising you see.
Visit our Privacy Policy to learn more. By continuing to use the site, you agree to this use of cookies and data.
  • în România
  • Lista ţărilor
  • Pe 7 zile
  • Temperatura apei
  • Hartă satelitară
  • Meteo pe hartă
  • Widget-uri
  • user-avatar
    Intrare

    Meteo pe oră la Fier

    Astăzi, 17 Iunie, Luni

    Timp Temperatura Precipitaţii Vânt Presiune Umiditate
    00:00 +24°C° 0 mm 1 m/s 757 mmHg 78%
    01:00 +24°C° 0 mm 1 m/s 757 mmHg 79%
    02:00 +24°C° 0 mm 1 m/s 757 mmHg 80%
    03:00 +24°C° 0 mm 1 m/s 757 mmHg 81%
    04:00 +23°C° 0 mm 1 m/s 757 mmHg 81%
    05:00 +23°C° 0 mm 0 m/s 757 mmHg 76%
    06:00 +24°C° 0 mm 0 m/s 757 mmHg 72%
    07:00 +25°C° 0 mm 0 m/s 758 mmHg 66%
    08:00 +29°C° 0 mm 1 m/s 758 mmHg 62%
    09:00 +30°C° 0 mm 2 m/s 757 mmHg 58%
    10:00 +31°C° 0 mm 3 m/s 757 mmHg 55%
    11:00 +31°C° 0.1 mm 3 m/s 757 mmHg 54%
    12:00 +31°C° 0.1 mm 3 m/s 758 mmHg 54%
    13:00 +33°C° 0.1 mm 4 m/s 758 mmHg 54%
    14:00 +31°C° 0.4 mm 3 m/s 758 mmHg 57%
    15:00 +30°C° 0.4 mm 3 m/s 757 mmHg 60%
    16:00 +29°C° 0.4 mm 3 m/s 757 mmHg 63%
    17:00 +28°C° 0.3 mm 2 m/s 757 mmHg 67%
    18:00 +27°C° 0.3 mm 2 m/s 758 mmHg 70%
    19:00 +26°C° 0.3 mm 2 m/s 758 mmHg 73%
    20:00 +25°C° 0.1 mm 2 m/s 758 mmHg 73%
    21:00 +24°C° 0.1 mm 1 m/s 758 mmHg 73%
    22:00 +24°C° 0.1 mm 1 m/s 758 mmHg 73%
    23:00 +24°C° 0.1 mm 1 m/s 759 mmHg 73%

    Mâine, 18 Iunie, Marţi

    Timp Temperatura Precipitaţii Vânt Presiune Umiditate
    00:00 +23°C° 0.1 mm 1 m/s 759 mmHg 73%
    01:00 +23°C° 0.1 mm 1 m/s 759 mmHg 73%
    02:00 +23°C° 0 mm 1 m/s 759 mmHg 73%
    03:00 +23°C° 0 mm 1 m/s 758 mmHg 73%
    04:00 +23°C° 0 mm 1 m/s 758 mmHg 72%
    05:00 +24°C° 0 mm 1 m/s 759 mmHg 68%
    06:00 +25°C° 0 mm 1 m/s 759 mmHg 63%
    07:00 +27°C° 0 mm 1 m/s 759 mmHg 59%
    08:00 +28°C° 0 mm 1 m/s 759 mmHg 56%
    09:00 +29°C° 0 mm 2 m/s 759 mmHg 52%
    10:00 +30°C° 0 mm 2 m/s 759 mmHg 49%
    11:00 +31°C° 0 mm 3 m/s 759 mmHg 50%
    12:00 +31°C° 0 mm 3 m/s 758 mmHg 51%
    13:00 +32°C° 0 mm 4 m/s 758 mmHg 52%
    14:00 +32°C° 0.1 mm 4 m/s 758 mmHg 54%
    15:00 +30°C° 0.1 mm 3 m/s 758 mmHg 56%
    16:00 +30°C° 0.1 mm 3 m/s 757 mmHg 58%
    17:00 +28°C° 0 mm 3 m/s 758 mmHg 64%
    18:00 +27°C° 0 mm 2 m/s 758 mmHg 71%
    19:00 +26°C° 0 mm 1 m/s 758 mmHg 77%
    20:00 +25°C° 0 mm 1 m/s 758 mmHg 80%
    21:00 +24°C° 0 mm 1 m/s 758 mmHg 83%
    22:00 +24°C° 0 mm 1 m/s 759 mmHg 85%
    23:00 +23°C° 0 mm 1 m/s 758 mmHg 85%

    Poimâine, 19 Iunie, Miercuri

    Timp Temperatura Precipitaţii Vânt Presiune Umiditate
    00:00 +23°C° 0 mm 1 m/s 758 mmHg 85%
    01:00 +23°C° 0 mm 1 m/s 758 mmHg 85%
    02:00 +23°C° 0 mm 1 m/s 758 mmHg 85%
    03:00 +22°C° 0 mm 1 m/s 758 mmHg 84%
    04:00 +22°C° 0 mm 1 m/s 758 mmHg 84%
    05:00 +24°C° 0 mm 1 m/s 758 mmHg 79%
    06:00 +25°C° 0 mm 1 m/s 758 mmHg 73%
    07:00 +26°C° 0 mm 1 m/s 758 mmHg 68%
    08:00 +28°C° 0 mm 1 m/s 758 mmHg 62%
    09:00 +29°C° 0 mm 2 m/s 758 mmHg 57%
    10:00 +30°C° 0 mm 2 m/s 758 mmHg 51%
    11:00 +31°C° 0 mm 3 m/s 758 mmHg 52%
    12:00 +32°C° 0 mm 4 m/s 758 mmHg 52%
    13:00 +32°C° 0 mm 5 m/s 757 mmHg 53%
    14:00 +30°C° 0 mm 5 m/s 757 mmHg 54%
    15:00 +30°C° 0 mm 4 m/s 757 mmHg 56%
    16:00 +29°C° 0 mm 4 m/s 757 mmHg 57%
    17:00 +28°C° 0 mm 3 m/s 757 mmHg 64%
    18:00 +27°C° 0 mm 2 m/s 757 mmHg 70%
    19:00 +26°C° 0 mm 1 m/s 757 mmHg 76%
    20:00 +25°C° 0 mm 1 m/s 757 mmHg 79%
    21:00 +24°C° 0 mm 1 m/s 757 mmHg 82%
    22:00 +23°C° 0 mm 1 m/s 758 mmHg 84%
    23:00 +23°C° 0 mm 1 m/s 758 mmHg 86%

    20 Iunie, Joi

    Timp Temperatura Precipitaţii Vânt Presiune Umiditate
    00:00 +23°C° 0 mm 1 m/s 757 mmHg 87%
    01:00 +22°C° 0 mm 1 m/s 757 mmHg 88%
    02:00 +22°C° 0 mm 1 m/s 757 mmHg 88%
    03:00 +22°C° 0 mm 1 m/s 757 mmHg 88%
    04:00 +22°C° 0 mm 1 m/s 757 mmHg 87%
    05:00 +23°C° 0 mm 1 m/s 757 mmHg 81%
    06:00 +25°C° 0 mm 1 m/s 757 mmHg 75%
    07:00 +26°C° 0 mm 1 m/s 758 mmHg 70%
    08:00 +27°C° 0 mm 1 m/s 758 mmHg 63%
    09:00 +28°C° 0 mm 2 m/s 757 mmHg 57%
    10:00 +29°C° 0 mm 2 m/s 757 mmHg 50%
    11:00 +30°C° 0 mm 3 m/s 757 mmHg 50%
    12:00 +30°C° 0 mm 4 m/s 757 mmHg 50%
    13:00 +30°C° 0 mm 4 m/s 757 mmHg 51%
    14:00 +30°C° 0 mm 4 m/s 757 mmHg 51%
    15:00 +30°C° 0 mm 4 m/s 757 mmHg 51%
    16:00 +29°C° 0 mm 3 m/s 757 mmHg 52%
    17:00 +28°C° 0 mm 3 m/s 757 mmHg 59%
    18:00 +26°C° 0 mm 2 m/s 757 mmHg 66%
    19:00 +25°C° 0 mm 1 m/s 757 mmHg 73%
    20:00 +24°C° 0 mm 1 m/s 758 mmHg 73%
    21:00 +24°C° 0 mm 1 m/s 758 mmHg 74%
    22:00 +21°C° 0 mm 0 m/s 758 mmHg 75%
    23:00 +21°C° 0 mm 0 m/s 758 mmHg 76%

    21 Iunie, Vineri

    Timp Temperatura Precipitaţii Vânt Presiune Umiditate
    00:00 +21°C° 0 mm 0 m/s 758 mmHg 77%
    01:00 +20°C° 0 mm 0 m/s 758 mmHg 78%
    02:00 +22°C° 0 mm 1 m/s 758 mmHg 78%
    03:00 +22°C° 0 mm 1 m/s 758 mmHg 79%
    04:00 +22°C° 0 mm 1 m/s 758 mmHg 80%
    05:00 +23°C° 0 mm 1 m/s 758 mmHg 74%
    06:00 +25°C° 0 mm 1 m/s 758 mmHg 68%
    07:00 +26°C° 0 mm 1 m/s 759 mmHg 63%
    08:00 +28°C° 0 mm 2 m/s 759 mmHg 58%
    09:00 +29°C° 0 mm 2 m/s 759 mmHg 54%
    10:00 +30°C° 0 mm 2 m/s 759 mmHg 49%
    11:00 +31°C° 0 mm 3 m/s 758 mmHg 49%
    12:00 +32°C° 0 mm 4 m/s 758 mmHg 49%
    13:00 +32°C° 0 mm 4 m/s 758 mmHg 50%
    14:00 +32°C° 0 mm 4 m/s 758 mmHg 52%
    15:00 +30°C° 0 mm 4 m/s 758 mmHg 54%
    16:00 +30°C° 0 mm 3 m/s 758 mmHg 56%
    17:00 +28°C° 0 mm 3 m/s 758 mmHg 62%
    18:00 +27°C° 0 mm 2 m/s 758 mmHg 69%
    19:00 +26°C° 0 mm 1 m/s 758 mmHg 75%
    20:00 +25°C° 0 mm 1 m/s 758 mmHg 77%
    21:00 +24°C° 0 mm 1 m/s 759 mmHg 79%
    22:00 +24°C° 0 mm 1 m/s 759 mmHg 80%
    23:00 +24°C° 0 mm 1 m/s 759 mmHg 80%

    22 Iunie, Sâmbătă

    Timp Temperatura Precipitaţii Vânt Presiune Umiditate
    00:00 +24°C° 0 mm 1 m/s 759 mmHg 80%
    01:00 +24°C° 0 mm 1 m/s 759 mmHg 79%
    02:00 +24°C° 0 mm 1 m/s 759 mmHg 79%
    03:00 +23°C° 0 mm 1 m/s 759 mmHg 79%
    04:00 +23°C° 0 mm 1 m/s 759 mmHg 78%
    05:00 +25°C° 0 mm 1 m/s 759 mmHg 74%
    06:00 +26°C° 0 mm 1 m/s 759 mmHg 69%
    07:00 +28°C° 0 mm 1 m/s 759 mmHg 65%
    08:00 +29°C° 0 mm 2 m/s 759 mmHg 60%
    09:00 +30°C° 0 mm 2 m/s 760 mmHg 56%
    10:00 +32°C° 0 mm 2 m/s 760 mmHg 51%
    11:00 +32°C° 0 mm 2 m/s 759 mmHg 49%
    12:00 +34°C° 0 mm 3 m/s 759 mmHg 47%
    13:00 +35°C° 0 mm 3 m/s 759 mmHg 45%
    14:00 +35°C° 0 mm 2 m/s 759 mmHg 44%
    15:00 +35°C° 0 mm 2 m/s 759 mmHg 43%
    16:00 +34°C° 0 mm 1 m/s 758 mmHg 43%
    17:00 +32°C° 0 mm 1 m/s 758 mmHg 51%
    18:00 +30°C° 0 mm 2 m/s 759 mmHg 59%
    19:00 +28°C° 0 mm 2 m/s 759 mmHg 67%
    20:00 +27°C° 0 mm 2 m/s 759 mmHg 68%
    21:00 +27°C° 0 mm 1 m/s 759 mmHg 68%
    22:00 +26°C° 0 mm 1 m/s 760 mmHg 68%
    23:00 +26°C° 0 mm 1 m/s 759 mmHg 68%
    Arată mai mult